Location: Daouli
(14.8671°N, 3.2030°W)
Time: 01:46:07
(UTC+00:00)

Helios 1A Rocket - Pass Details

Date: 29 October 2020
Orbit: 563 x 586 km, 98.3° (Epoch: 02 December)

Event Time Altitude Azimuth Distance (km) Brightness Sun altitude
Rises 18:39:55 0° 156° (SSE) 2,801 6.3 -13.8°
Reaches altitude 10° 18:42:08 10° 150° (SSE) 1,900 5.4 -14.3°
Maximum altitude 18:46:05 46° 77° (ENE) 787 3.1 -15.2°
Drops below altitude 10° 18:50:01 10° 3° (N) 1,894 5.4 -16.2°
Sets 18:52:13 0° 358° (N) 2,790 6.3 -16.7°
